Regional Weather Roundup
Issued by NWS

Home | Current Version | Previous Version | Text Only | Print | Product List | Glossary Off
Versions: 1 2 3 4 5 6 7 8 9 10 11 12 13 14 15 16 17 18 19 20 21 22 23 24 25 26 27 28 29 30 31 32 33 34 35 36 37 38 39 40 41 42 43 44 45 46 47 48 49 50

909
ASUS45 KSLC 221510
RWRUT

UTAH REGIONAL WEATHER ROUNDUP
NATIONAL WEATHER SERVICE SALT LAKE CITY UT
900 AM MDT SAT JUL 22 2017

UTZ001>011-023>025-221600-

NORTHERN UTAH

CITY           SKY/WX    TMP DP  RH WIND       PRES   REMARKS
BRIGHAM CITY   SUNNY     71  35  27 CALM      30.15R
HILL AFB       SUNNY     72  46  39 E14       30.17R
LOGAN          SUNNY     67  44  43 N3        30.19R
OGDEN          SUNNY     79  44  28 VRB5      30.14R
SALT LAKE CITY MOSUNNY   82  54  37 SE7       30.12R
TOOELE VALLEY  SUNNY     81  50  34 S10       30.14R
WENDOVER       SUNNY     82  34  17 CALM      30.14R
HEBER CITY     SUNNY     68  48  49 CALM      30.26R
WEST JORDAN    SUNNY     78  60  55 SE10      30.17R

$$

UTZ011>015-024>027-221600-

CENTRAL/NORTHEAST UTAH

CITY           SKY/WX    TMP DP  RH WIND       PRES   REMARKS
PROVO AIRPORT  SUNNY     76  54  46 SE6       30.18R
MOAB/CANYONLAN MOSUNNY   71  63  75 CALM      30.18R
DELTA          SUNNY     77  52  41 NE5       30.16S
PRICE          SUNNY     71  53  52 NE3       30.26R
ROOSEVELT      SUNNY     70  50  49 CALM      30.26S
VERNAL         SUNNY     70  53  54 CALM      30.25R

$$

UTZ013>016-019>022-027-221600-

SOUTHERN UTAH

CITY           SKY/WX    TMP DP  RH WIND       PRES   REMARKS
BRYCE CANYON   SUNNY     64  53  67 N7        30.38S
CEDAR CITY     SUNNY     75  53  46 NE5       30.22R
MILFORD        SUNNY     79  52  38 SW10      30.17R
ST GEORGE      SUNNY     87  56  34 N5        30.03R
HANKSVILLE     SUNNY     72  55  56 CALM      30.20S
BLANDING       MOSUNNY   68  57  66 S3        30.31R

$$

REGIONAL REPORTS     COLORADO/ARIZONA

CITY           SKY/WX    TMP DP  RH WIND       PRES   REMARKS
CRAIG, CO      CLOUDY    61  52  72 NE3       30.33R
GRAND JUNCTION SUNNY     70  62  76 S6        30.22R
RIFLE, CO      CLOUDY    66  57  72 CALM      30.28R
MONTROSE, CO   CLOUDY    66  57  72 SE7       30.29S
CORTEZ, CO     CLOUDY    67  56  67 CALM      30.23R
COLORADO CITY    N/A     81  54  39 NE3       30.20R
PAGE, AZ       SUNNY     81  57  43 NE3       30.14R
GRAND CANYON   SUNNY     72  54  53 NW6       30.30R
KINGMAN, AZ    MOSUNNY   86  56  35 CALM      30.06R
FLAGSTAFF, AZ  SUNNY     67  57  70 CALM      30.31R

$$

REGIONAL REPORTS    NEVADA/IDAHO/WYOMING

CITY           SKY/WX    TMP DP  RH WIND       PRES   REMARKS
LAS VEGAS, NV  PTSUNNY   92  48  22 CALM      29.93R
ELY, NY        SUNNY     69  37  30 CALM      30.29R
ELKO, NV       SUNNY     67  36  31 S5        30.21S
POCATELLO, ID  SUNNY     72  35  25 SW9       30.22R
BURLEY, ID     SUNNY     66  43  43 W5        30.19R
FORT BRIDGER,    N/A     67  39  35 W6        30.38R
EVANSTON, WY   SUNNY     66  42  41 CALM      30.36R
ROCK SPRINGS,  SUNNY     68  46  45 VRB3      30.35R
KEMMERER, WY     N/A     64  34  32 N9        30.38R

$$




USA.gov is the U.S. government's official web portal to all federal, state and local government web resources and services.